This is the latest recevied weather packets stored in our database for station/object KB4RFE. If no packets are shown the sender has not sent any weather packets the latest 10 day(s).
| Time | Temp. | Humidity | Pressure | Rain* | Wind** | Luminosity | Snow |
|---|---|---|---|---|---|---|---|
| 1788374229 | 32.78° C | 64% | 1021 hPa | 0 mm | - | 719 W/m² | - |
| 1788373926 | 32.78° C | 63% | 1020.9 hPa | 0 mm | - | 740 W/m² | - |
| 1788373621 | 32.78° C | 64% | 1021 hPa | 0 mm | - | 771 W/m² | - |
| 1788373318 | 32.78° C | 60% | 1021.1 hPa | 0 mm | - | 772 W/m² | - |
| 1788373013 | 32.78° C | 63% | 1021.1 hPa | 0 mm | - | 791 W/m² | - |
| 1788372708 | 32.22° C | 63% | 1021.1 hPa | 0 mm | - | 811 W/m² | - |
| 1788372407 | 31.67° C | 69% | 1021.1 hPa | 0 mm | - | 825 W/m² | - |
| 1788372103 | 31.67° C | 72% | 1021.2 hPa | 0 mm | - | 756 W/m² | - |
| 1788371803 | 31.67° C | 71% | 1021.1 hPa | 0 mm | - | 800 W/m² | - |
| 1788371499 | 31.67° C | 74% | 1021.2 hPa | 0 mm | - | 808 W/m² | - |
| 1788371195 | 31.67° C | 72% | 1021 hPa | 0 mm | - | 783 W/m² | - |
| 1788370891 | 31.67° C | 76% | 1021.1 hPa | 0 mm | - | 801 W/m² | - |
| 1788370586 | 31.67° C | 76% | 1021.3 hPa | 0 mm | - | 807 W/m² | - |
| 1788370281 | 31.11° C | 73% | 1021.1 hPa | 0 mm | - | 820 W/m² | - |
| 1788369980 | 31.67° C | 75% | 1021.1 hPa | 0 mm | - | 797 W/m² | - |
| 1788369674 | 31.67° C | 74% | 1021.3 hPa | 0 mm | - | 811 W/m² | - |
| 1788369370 | 31.67° C | 73% | 1021.4 hPa | 0 mm | - | 804 W/m² | - |
| 1788369066 | 31.11° C | 75% | 1021.4 hPa | 0 mm | - | 807 W/m² | - |
| 1788368761 | 31.11° C | 76% | 1021.3 hPa | 0 mm | - | 705 W/m² | - |
| 1788368457 | 31.11° C | 76% | 1021.4 hPa | 0 mm | - | 742 W/m² | - |
| 1788368156 | 31.11° C | 76% | 1021.3 hPa | 0 mm | - | 758 W/m² | - |
| 1788367851 | 31.67° C | 74% | 1021.5 hPa | 0 mm | - | 763 W/m² | - |
| 1788367546 | 31.67° C | 77% | 1021.4 hPa | 0 mm | - | 767 W/m² | - |
| 1788367245 | 31.67° C | 76% | 1021.6 hPa | 0 mm | - | 777 W/m² | - |
| 1788366941 | 31.67° C | 74% | 1021.6 hPa | 0 mm | - | 771 W/m² | - |
* Rain latest hour (hover to see other rain measurements)
** Current wind speed in m/s (hover to see current wind gust speed)